JST779 YPAD-YMML

Flight info

Callsign JST779
Flight time 1h 6m
Altitude 37000
Route BENDO Y12 ARBEY
Aircraft A320/M-SDE3FGHIRWY/LB1

Departure

Time 2026-05-01 09:51
Airport Adelaide International Airport (YPAD)

Arrival

Time 2026-05-01 10:58
Airport Melbourne Airport (YMML)
Time Latitude Longitude Altitude Speed Heading
2026-05-01 09:02 -34.94080 138.53623 27 ft 0 kts 320°
2026-05-01 09:40 -34.94095 138.53639 27 ft 4 kts 320°
2026-05-01 09:40 -34.94132 138.53685 30 ft 4 kts 287°
2026-05-01 09:40 -34.94135 138.53697 29 ft 0 kts 270°
2026-05-01 09:43 -34.94139 138.53686 30 ft 4 kts 242°
2026-05-01 09:43 -34.94174 138.53650 26 ft 9 kts 216°
2026-05-01 09:44 -34.94318 138.53617 23 ft 14 kts 232°
2026-05-01 09:44 -34.94385 138.53517 22 ft 17 kts 230°
2026-05-01 09:44 -34.94463 138.53403 25 ft 17 kts 230°
2026-05-01 09:45 -34.94518 138.53284 23 ft 17 kts 263°
2026-05-01 09:45 -34.94461 138.52994 22 ft 20 kts 236°
2026-05-01 09:45 -34.94572 138.52882 23 ft 22 kts 218°
2026-05-01 09:46 -34.94693 138.52768 20 ft 20 kts 218°
2026-05-01 09:46 -34.94804 138.52664 20 ft 21 kts 218°
2026-05-01 09:46 -34.94910 138.52564 20 ft 17 kts 218°
2026-05-01 09:46 -34.94998 138.52480 20 ft 15 kts 218°
2026-05-01 09:47 -34.95093 138.52450 20 ft 11 kts 175°
2026-05-01 09:47 -34.95146 138.52469 20 ft 6 kts 152°
2026-05-01 09:47 -34.95153 138.52474 20 ft 0 kts 148°
2026-05-01 09:49 -34.95163 138.52483 20 ft 3 kts 147°
2026-05-01 09:50 -34.95185 138.52503 22 ft 5 kts 139°
2026-05-01 09:50 -34.95219 138.52538 22 ft 8 kts 140°
2026-05-01 09:50 -34.95245 138.52594 21 ft 8 kts 83°
2026-05-01 09:50 -34.95190 138.52686 20 ft 27 kts 51°
2026-05-01 09:51 -34.94918 138.53081 24 ft 93 kts 50°
2026-05-01 09:51 -34.94383 138.53855 73 ft 138 kts 45°
2026-05-01 09:51 -34.93800 138.54732 660 ft 132 kts 47°
2026-05-01 09:51 -34.93214 138.55586 1260 ft 131 kts 46°
2026-05-01 09:52 -34.92624 138.56429 1840 ft 132 kts 41°
2026-05-01 09:52 -34.92027 138.57382 2196 ft 156 kts 55°
2026-05-01 09:52 -34.91747 138.58810 2492 ft 193 kts 82°
2026-05-01 09:52 -34.92035 138.60531 2885 ft 223 kts 105°
2026-05-01 09:53 -34.92828 138.62280 3320 ft 250 kts 121°
2026-05-01 09:53 -34.93913 138.64046 3821 ft 270 kts 121°
2026-05-01 09:53 -34.94990 138.66008 4388 ft 287 kts 117°
2026-05-01 09:53 -34.96014 138.68099 5301 ft 288 kts 116°
2026-05-01 09:54 -34.97028 138.70224 6240 ft 292 kts 116°
2026-05-01 09:54 -34.98023 138.72403 7101 ft 296 kts 115°
2026-05-01 09:54 -34.99000 138.74590 7935 ft 299 kts 115°
2026-05-01 09:54 -35.00007 138.76857 8796 ft 302 kts 115°
2026-05-01 09:55 -35.01012 138.79120 9632 ft 305 kts 114°
2026-05-01 09:55 -35.02021 138.81384 10314 ft 314 kts 114°
2026-05-01 09:55 -35.03101 138.83817 10571 ft 337 kts 115°
2026-05-01 09:55 -35.04227 138.86343 11286 ft 339 kts 115°
2026-05-01 09:56 -35.05366 138.88878 12001 ft 345 kts 115°
2026-05-01 09:56 -35.06444 138.91588 12167 ft 365 kts 107°
2026-05-01 09:56 -35.07348 138.94558 12433 ft 380 kts 107°
2026-05-01 09:56 -35.08274 138.97618 13013 ft 387 kts 107°
2026-05-01 09:57 -35.09215 139.00715 13646 ft 391 kts 106°
2026-05-01 09:57 -35.10167 139.03848 14212 ft 396 kts 106°
2026-05-01 09:57 -35.11129 139.07022 14743 ft 400 kts 107°
2026-05-01 09:57 -35.12097 139.10227 15271 ft 404 kts 107°
2026-05-01 09:58 -35.13075 139.13469 15796 ft 408 kts 107°
2026-05-01 09:58 -35.14059 139.16732 16324 ft 412 kts 107°
2026-05-01 09:58 -35.15055 139.20035 16877 ft 416 kts 107°
2026-05-01 09:58 -35.16063 139.23369 17420 ft 420 kts 107°
2026-05-01 09:59 -35.17075 139.26726 17969 ft 423 kts 107°
2026-05-01 09:59 -35.17762 139.29017 18331 ft 426 kts 107°
2026-05-01 09:59 -35.18786 139.32433 18805 ft 430 kts 107°
2026-05-01 09:59 -35.19816 139.35880 19303 ft 434 kts 107°
2026-05-01 10:00 -35.20854 139.39362 19791 ft 437 kts 107°
2026-05-01 10:00 -35.21899 139.42868 20286 ft 441 kts 108°
2026-05-01 10:00 -35.22954 139.46403 20742 ft 444 kts 108°
2026-05-01 10:00 -35.24007 139.49922 21188 ft 448 kts 108°
2026-05-01 10:01 -35.25143 139.53532 21629 ft 451 kts 110°
2026-05-01 10:01 -35.26398 139.57076 22068 ft 455 kts 112°
2026-05-01 10:01 -35.27721 139.60546 22491 ft 458 kts 114°
2026-05-01 10:01 -35.29110 139.64074 22918 ft 461 kts 114°
2026-05-01 10:02 -35.30501 139.67624 23331 ft 465 kts 114°
2026-05-01 10:02 -35.31882 139.71217 23708 ft 468 kts 113°
2026-05-01 10:02 -35.33244 139.74839 24054 ft 470 kts 113°
2026-05-01 10:02 -35.34598 139.78497 24396 ft 473 kts 112°
2026-05-01 10:03 -35.35950 139.82183 24743 ft 475 kts 112°
2026-05-01 10:03 -35.37305 139.85883 25084 ft 477 kts 112°
2026-05-01 10:03 -35.38668 139.89608 25442 ft 480 kts 112°
2026-05-01 10:03 -35.40037 139.93346 25788 ft 482 kts 112°
2026-05-01 10:04 -35.41418 139.97101 26139 ft 485 kts 112°
2026-05-01 10:04 -35.42813 140.00879 26486 ft 487 kts 112°
2026-05-01 10:04 -35.44212 140.04670 26832 ft 490 kts 112°
2026-05-01 10:04 -35.45617 140.08488 27174 ft 492 kts 112°
2026-05-01 10:05 -35.47027 140.12327 27514 ft 494 kts 112°
2026-05-01 10:05 -35.48441 140.16187 27838 ft 497 kts 112°
2026-05-01 10:05 -35.49852 140.20051 28295 ft 496 kts 112°
2026-05-01 10:05 -35.51258 140.23903 28863 ft 493 kts 112°
2026-05-01 10:06 -35.52653 140.27732 29407 ft 491 kts 112°
2026-05-01 10:06 -35.54049 140.31556 29904 ft 490 kts 112°
2026-05-01 10:06 -35.55440 140.35370 30355 ft 489 kts 112°
2026-05-01 10:06 -35.56829 140.39186 30770 ft 489 kts 112°
2026-05-01 10:07 -35.58211 140.42993 31180 ft 488 kts 112°
2026-05-01 10:07 -35.59589 140.46798 31627 ft 486 kts 112°
2026-05-01 10:07 -35.60961 140.50588 32054 ft 485 kts 112°
2026-05-01 10:07 -35.62329 140.54374 32484 ft 485 kts 112°
2026-05-01 10:08 -35.65046 140.61895 33329 ft 484 kts 112°
2026-05-01 10:08 -35.66411 140.65675 33753 ft 483 kts 112°
2026-05-01 10:08 -35.67769 140.69445 34178 ft 482 kts 112°
2026-05-01 10:09 -35.69123 140.73212 34537 ft 482 kts 112°
2026-05-01 10:09 -35.70473 140.76980 34868 ft 482 kts 112°
2026-05-01 10:09 -35.71826 140.80761 35186 ft 482 kts 112°
2026-05-01 10:09 -35.73176 140.84532 35492 ft 482 kts 112°
2026-05-01 10:10 -35.74528 140.88312 35803 ft 482 kts 112°
2026-05-01 10:10 -35.75878 140.92090 36124 ft 481 kts 112°
2026-05-01 10:10 -35.78567 140.99640 36726 ft 481 kts 112°
2026-05-01 10:11 -35.79911 141.03421 36991 ft 482 kts 112°
2026-05-01 10:11 -35.81258 141.07207 37102 ft 485 kts 112°
2026-05-01 10:11 -35.83983 141.14877 37112 ft 490 kts 112°
2026-05-01 10:12 -35.86686 141.22535 37114 ft 491 kts 112°
2026-05-01 10:13 -35.90782 141.34114 37122 ft 491 kts 112°
2026-05-01 10:13 -35.93503 141.41824 37119 ft 490 kts 112°
2026-05-01 10:14 -35.97564 141.53420 37126 ft 490 kts 112°
2026-05-01 10:14 -36.00263 141.61143 37125 ft 490 kts 112°
2026-05-01 10:15 -36.02960 141.68879 37128 ft 490 kts 112°
2026-05-01 10:15 -36.05653 141.76617 37130 ft 490 kts 112°
2026-05-01 10:16 -36.08347 141.84363 37136 ft 490 kts 112°
2026-05-01 10:17 -36.12373 141.95975 37143 ft 490 kts 111°
2026-05-01 10:17 -36.16349 142.07553 37143 ft 489 kts 111°
2026-05-01 10:18 -36.20348 142.19177 37150 ft 489 kts 111°
2026-05-01 10:19 -36.22996 142.26936 37159 ft 489 kts 111°
2026-05-01 10:19 -36.25639 142.34686 37167 ft 488 kts 111°
2026-05-01 10:20 -36.29599 142.46316 37167 ft 488 kts 111°
2026-05-01 10:20 -36.32229 142.54070 37162 ft 487 kts 111°
2026-05-01 10:21 -36.36160 142.65691 37169 ft 487 kts 111°
2026-05-01 10:22 -36.40070 142.77326 37166 ft 486 kts 111°
2026-05-01 10:23 -36.43963 142.88939 37176 ft 485 kts 111°
2026-05-01 10:23 -36.47845 143.00557 37183 ft 485 kts 110°
2026-05-01 10:24 -36.52987 143.16054 37187 ft 484 kts 110°
2026-05-01 10:25 -36.58108 143.31551 37188 ft 484 kts 110°
2026-05-01 10:26 -36.60292 143.39420 37212 ft 479 kts 101°
2026-05-01 10:26 -36.61840 143.47470 36391 ft 479 kts 101°
2026-05-01 10:27 -36.63383 143.55530 35609 ft 478 kts 101°
2026-05-01 10:27 -36.64915 143.63563 34542 ft 475 kts 101°
2026-05-01 10:28 -36.65683 143.67554 33951 ft 474 kts 101°
2026-05-01 10:28 -36.67211 143.75497 32502 ft 475 kts 101°
2026-05-01 10:28 -36.67973 143.79516 31716 ft 477 kts 101°
2026-05-01 10:29 -36.69485 143.87612 30074 ft 482 kts 101°
2026-05-01 10:29 -36.70242 143.91690 29115 ft 484 kts 101°
2026-05-01 10:30 -36.71790 143.99879 27219 ft 487 kts 101°
2026-05-01 10:30 -36.73375 144.08008 26181 ft 469 kts 101°
2026-05-01 10:31 -36.74897 144.15620 25936 ft 437 kts 101°
2026-05-01 10:31 -36.76333 144.22634 25633 ft 396 kts 101°
2026-05-01 10:32 -36.77683 144.29098 24566 ft 378 kts 101°
2026-05-01 10:32 -36.78348 144.32255 23949 ft 373 kts 101°
2026-05-01 10:32 -36.79665 144.38444 22514 ft 365 kts 101°
2026-05-01 10:33 -36.81893 144.44016 21148 ft 364 kts 133°
2026-05-01 10:33 -36.85958 144.47653 19809 ft 359 kts 146°
2026-05-01 10:34 -36.88038 144.49353 19180 ft 356 kts 146°
2026-05-01 10:34 -36.90028 144.50977 18600 ft 352 kts 146°
2026-05-01 10:34 -36.92067 144.52646 17945 ft 348 kts 146°
2026-05-01 10:35 -36.96062 144.55940 16665 ft 341 kts 145°
2026-05-01 10:35 -36.98036 144.57576 16147 ft 340 kts 145°
2026-05-01 10:35 -37.00000 144.59204 15842 ft 337 kts 145°
2026-05-01 10:35 -37.01951 144.60820 15525 ft 335 kts 145°
2026-05-01 10:36 -37.05802 144.64008 14523 ft 329 kts 144°
2026-05-01 10:36 -37.07705 144.65583 14006 ft 327 kts 144°
2026-05-01 10:36 -37.09594 144.67152 13466 ft 327 kts 144°
2026-05-01 10:37 -37.11482 144.68722 13147 ft 325 kts 144°
2026-05-01 10:37 -37.15228 144.71836 12470 ft 322 kts 145°
2026-05-01 10:37 -37.17223 144.73139 12005 ft 326 kts 159°
2026-05-01 10:38 -37.19417 144.73866 11604 ft 327 kts 168°
2026-05-01 10:38 -37.21646 144.74443 11237 ft 327 kts 168°
2026-05-01 10:38 -37.23861 144.75027 11003 ft 322 kts 168°
2026-05-01 10:38 -37.26075 144.75616 10497 ft 327 kts 168°
2026-05-01 10:39 -37.28268 144.76201 10288 ft 316 kts 168°
2026-05-01 10:39 -37.30404 144.76774 9736 ft 312 kts 168°
2026-05-01 10:39 -37.32518 144.77339 9155 ft 309 kts 168°
2026-05-01 10:39 -37.34620 144.77850 8817 ft 308 kts 170°
2026-05-01 10:40 -37.36742 144.78256 8600 ft 309 kts 172°
2026-05-01 10:40 -37.38870 144.78612 8363 ft 308 kts 172°
2026-05-01 10:40 -37.41003 144.78956 8118 ft 308 kts 172°
2026-05-01 10:40 -37.43121 144.79304 7888 ft 306 kts 172°
2026-05-01 10:41 -37.45239 144.79561 7651 ft 305 kts 181°
2026-05-01 10:41 -37.47332 144.79240 7417 ft 303 kts 196°
2026-05-01 10:41 -37.51267 144.77427 6951 ft 300 kts 203°
2026-05-01 10:42 -37.53193 144.76513 6720 ft 299 kts 203°
2026-05-01 10:42 -37.55156 144.75588 6483 ft 297 kts 203°
2026-05-01 10:42 -37.57061 144.74693 6256 ft 296 kts 202°
2026-05-01 10:42 -37.58384 144.74118 6099 ft 299 kts 196°
2026-05-01 10:43 -37.61111 144.73683 5794 ft 299 kts 182°
2026-05-01 10:43 -37.63186 144.73545 5560 ft 298 kts 182°
2026-05-01 10:43 -37.65252 144.73398 5358 ft 294 kts 183°
2026-05-01 10:43 -37.67264 144.73247 5235 ft 286 kts 183°
2026-05-01 10:44 -37.69217 144.73102 5117 ft 277 kts 183°
2026-05-01 10:44 -37.71115 144.72969 4979 ft 268 kts 182°
2026-05-01 10:44 -37.72362 144.72920 4892 ft 262 kts 181°
2026-05-01 10:44 -37.74153 144.72890 4754 ft 254 kts 180°
2026-05-01 10:45 -37.75907 144.72876 4498 ft 251 kts 179°
2026-05-01 10:45 -37.77652 144.72866 4227 ft 250 kts 179°
2026-05-01 10:45 -37.79385 144.72893 4025 ft 248 kts 171°
2026-05-01 10:45 -37.80992 144.73441 3840 ft 240 kts 150°
2026-05-01 10:46 -37.82364 144.74573 3655 ft 232 kts 132°
2026-05-01 10:46 -37.83374 144.76118 3465 ft 223 kts 114°
2026-05-01 10:46 -37.84003 144.77851 3296 ft 211 kts 99°
2026-05-01 10:46 -37.84228 144.79599 3159 ft 193 kts 84°
2026-05-01 10:47 -37.84100 144.81238 3064 ft 184 kts 73°
2026-05-01 10:47 -37.83910 144.82819 3003 ft 181 kts 73°
2026-05-01 10:47 -37.83722 144.84392 3008 ft 180 kts 73°
2026-05-01 10:47 -37.83276 144.85805 3010 ft 170 kts 43°
2026-05-01 10:48 -37.82293 144.86531 3009 ft 165 kts 11°
2026-05-01 10:48 -37.81144 144.86423 2841 ft 170 kts 350°
2026-05-01 10:48 -37.79970 144.86149 2413 ft 172 kts 355°
2026-05-01 10:48 -37.78803 144.85937 2167 ft 166 kts 354°
2026-05-01 10:49 -37.77767 144.85290 2240 ft 176 kts 317°
2026-05-01 10:49 -37.77313 144.83794 2489 ft 195 kts 277°
2026-05-01 10:49 -37.77726 144.82122 2741 ft 210 kts 238°
2026-05-01 10:49 -37.78751 144.80792 2933 ft 215 kts 224°
2026-05-01 10:50 -37.79925 144.79625 3001 ft 216 kts 210°
2026-05-01 10:50 -37.81274 144.79016 3006 ft 218 kts 194°
2026-05-01 10:50 -37.82700 144.78596 3003 ft 218 kts 192°
2026-05-01 10:50 -37.84182 144.78193 3004 ft 216 kts 192°
2026-05-01 10:51 -37.85653 144.77793 3003 ft 218 kts 191°
2026-05-01 10:51 -37.87079 144.77766 2997 ft 214 kts 163°
2026-05-01 10:51 -37.88354 144.78583 3000 ft 204 kts 131°
2026-05-01 10:51 -37.89141 144.79998 2998 ft 192 kts 103°
2026-05-01 10:52 -37.89339 144.81604 2996 ft 181 kts 78°
2026-05-01 10:52 -37.89007 144.83089 2977 ft 174 kts 56°
2026-05-01 10:52 -37.88262 144.84235 2886 ft 166 kts 34°
2026-05-01 10:52 -37.87256 144.84916 2848 ft 163 kts 20°
2026-05-01 10:53 -37.86194 144.85452 2812 ft 165 kts 20°
2026-05-01 10:53 -37.85129 144.85996 2772 ft 164 kts 20°
2026-05-01 10:53 -37.84065 144.86504 2742 ft 164 kts 14°
2026-05-01 10:53 -37.82937 144.86711 2714 ft 165 kts
2026-05-01 10:54 -37.81793 144.86574 2644 ft 166 kts 354°
2026-05-01 10:54 -37.80649 144.86358 2571 ft 166 kts 355°
2026-05-01 10:54 -37.79507 144.86143 2504 ft 165 kts 355°
2026-05-01 10:54 -37.78370 144.85929 2287 ft 164 kts 355°
2026-05-01 10:55 -37.77242 144.85716 2060 ft 160 kts 355°
2026-05-01 10:55 -37.76201 144.85516 1867 ft 143 kts 356°
2026-05-01 10:55 -37.75249 144.85334 1693 ft 134 kts 356°
2026-05-01 10:55 -37.74317 144.85161 1485 ft 135 kts 355°
2026-05-01 10:56 -37.73379 144.84985 1311 ft 135 kts 354°
2026-05-01 10:56 -37.72443 144.84820 1098 ft 136 kts 355°
2026-05-01 10:56 -37.71508 144.84658 911 ft 135 kts 352°
2026-05-01 10:56 -37.70584 144.84469 742 ft 134 kts 352°
2026-05-01 10:57 -37.69662 144.84298 565 ft 134 kts 352°
2026-05-01 10:57 -37.68741 144.84130 415 ft 133 kts 353°
2026-05-01 10:57 -37.67867 144.83969 356 ft 113 kts 351°
2026-05-01 10:57 -37.67089 144.83823 383 ft 110 kts 351°
2026-05-01 10:58 -37.66679 144.83747 397 ft 28 kts 352°
2026-05-01 10:58 -37.66556 144.83761 402 ft 15 kts 32°
2026-05-01 10:58 -37.66509 144.83873 404 ft 16 kts 91°
2026-05-01 10:58 -37.66518 144.84021 404 ft 17 kts 94°
2026-05-01 10:59 -37.66584 144.84150 401 ft 21 kts 157°
2026-05-01 10:59 -37.66747 144.84184 390 ft 27 kts 171°
2026-05-01 10:59 -37.66948 144.84222 387 ft 32 kts 172°
2026-05-01 10:59 -37.67168 144.84261 382 ft 28 kts 173°
2026-05-01 11:00 -37.67329 144.84292 379 ft 18 kts 172°
2026-05-01 11:00 -37.67442 144.84314 377 ft 14 kts 165°
2026-05-01 11:00 -37.67473 144.84423 377 ft 16 kts 79°
2026-05-01 11:00 -37.67456 144.84564 380 ft 15 kts 81°
2026-05-01 11:01 -37.67443 144.84675 381 ft 12 kts 82°
2026-05-01 11:01 -37.67473 144.84733 381 ft 11 kts 171°
2026-05-01 11:01 -37.67520 144.84740 380 ft 5 kts 172°
2026-05-01 11:01 -37.67525 144.84741 379 ft 0 kts 172°